OBJECT D, 65944

Orbit data source: Space-Track

You're viewing an Uncataloged Satellite

Recently launched and/or uncataloged satellites may have evolving metadata. Metadata may include but not limited to: Owner, Maufacturer, Bus, Motor, and Mission.

OBJECT D, 65944 is a satellite owned by CASC (CN) in SSO that was launched on Sat, 11 Oct 2025 UTC launched from the Yellow Sea Launch Area, China (YSLA). Unknown objects in Earth's orbit typically refer to objects detected orbiting the Earth but have not yet been identified or cataloged. These objects could be anything from previously untracked satellites, spent rocket stages, debris from satellite collisions, or even natural meteoroids temporarily captured by Earth's gravity.

Not visible in the next 10 days
Identifier
65944, 2025-226D
Orbit
SSO
Country
Flag of CNCN / PRC
Related business
Manufacturer
CALT
Mission
Spacecraft
Bus & Motor
Unknown
Mass
1,000 kg wet, 1,000 kg dry
Launch date (UTC)
2025-10-11 (2 months ago)
Launch vehicle
Unknown
Launch site
Yellow Sea Launch Area, China (YSLA)
Object type
Unknown
Shape & HBR
Unknown shape, 1.1 m
Radar Cross Section
RCS unknown

Expand to show TLE details & history
Last TLE update: 4 weeks ago

TLE from 4 weeks ago
0 OBJECT D
1 65944U 25226D   25315.10482903  .34966803  25583-5  21748-1 0  9998
2 65944  97.6309  30.2747 0014443 306.6264  53.3694 16.17663374  4738
Epoch: 2025-11-11T02:30Z
TLE epoch observation values (Epoch: 2025-11-11T02:30:57.228Z)
Latitude
Longitude
-57.95992°
Altitude
223.435 km
Speed
7.776 km/s
True Right ascension
02h 01m 05s
True Declination
0° 00' 00"
Sunlit
Object was in full shadow at epoch
Visualization orbit readout
Latitude
Unknown
Longitude
Unknown
Altitude
Unknown
Speed
Unknown
Apparent Right ascension
Unknown
Apparent Declination
Unknown
Sunlit
N/A
Visualization observer readout
Local Sidereal Time
05:38:22
Azimuth
Unknown
Elevation
Unknown
Doppler factor
Unknown
Orbital elements
Apogee altitude
232.284 km
Perigee altitude
213.217 km
Semi-major axis
6,600.888 km
Eccentricity
0.00144
Inclination
97.6309°
RAAN
30.2747°
Arg. of periapsis
306.6264°
True anomaly
53.50236°
Mean anomaly
53.3694°
Eccentric anomaly
53.43587°
Mean motion
4.04706 °/min
Orbital period
88.95 mins
BSTAR
0.021748
Loading maneuver chart data...
Computing Atmospheric mass density...
Loading historical data...
Loading historical data...
Loading historical data...
Loading historical data...
Loading historical data...
Loading historical data...
Loading historical data...
Other satellites on launch #226 in the year 2025 (2025-10-11 UTC)

Documentation

Showing up to 5 results
|